CDT,Max TemperatureF,Mean TemperatureF,Min TemperatureF,Max Dew PointF,MeanDew PointF,Min DewpointF,Max Humidity, Mean Humidity, Min Humidity, Max Sea Level PressureIn, Mean Sea Level PressureIn, Min Sea Level PressureIn, Max VisibilityMiles, Mean VisibilityMiles, Min VisibilityMiles, Max Wind SpeedMPH, Mean Wind SpeedMPH, Max Gust SpeedMPH,PrecipitationIn, CloudCover, Events, WindDirDegrees
2013-10-1,78,65,48,56,48,37,90,60,29,29.98,29.82,29.73,10,10,10,15,8,28,0.00,0,,241
2013-10-2,73,56,39,44,39,35,86,54,28,30.11,30.03,29.93,10,10,10,8,3,,0.00,1,,154
2013-10-3,64,58,52,58,54,44,94,83,54,29.97,29.90,29.86,10,8,0,23,9,31,0.86,6,Fog-Rain,71
2013-10-4,57,56,55,56,54,54,100,95,89,30.06,29.98,29.90,10,6,1,16,10,23,0.84,8,Rain,81
2013-10-5,63,58,52,63,57,50,100,95,88,30.01,29.86,29.72,10,4,0,22,11,30,2.70,8,Fog-Rain,90
2013-10-6,57,48,42,48,41,36,100,79,47,29.74,29.71,29.69,10,8,0,13,5,20,0.00,2,Fog,265
2013-10-7,63,52,42,47,43,39,96,80,43,30.06,29.86,29.71,10,9,3,15,10,24,0.04,4,Rain,301
2013-10-8,73,57,41,47,43,38,93,65,33,30.11,30.06,30.01,10,10,8,17,6,29,0.00,0,,180
2013-10-9,73,60,48,50,47,44,86,64,41,30.15,30.12,30.06,10,10,10,13,7,21,0.00,0,,176
2013-10-10,72,58,44,48,45,41,93,67,41,30.15,30.10,30.03,10,10,5,15,5,,0.00,0,,148
2013-10-11,73,60,48,57,51,46,93,74,48,30.04,29.96,29.85,10,8,2,23,8,31,0.00,1,,126
2013-10-12,64,54,46,55,46,37,84,66,44,30.14,29.93,29.82,10,10,10,17,11,26,0.00,4,,229
2013-10-13,59,48,39,41,37,32,93,68,39,30.43,30.33,30.17,10,10,10,14,7,23,0.00,1,,296
2013-10-14,59,48,37,41,36,31,82,70,46,30.45,30.35,30.14,10,10,10,14,5,,0.00,0,,105
2013-10-15,55,50,46,54,48,41,100,91,77,30.11,29.81,29.70,10,5,1,17,12,25,0.38,8,Rain,167
2013-10-16,50,44,39,46,43,36,100,88,71,29.94,29.83,29.73,10,8,2,13,7,21,0.00,7,Rain,304
2013-10-17,55,42,30,41,35,28,100,86,51,29.92,29.85,29.79,10,6,0,8,2,16,0.00,3,Fog-Rain,240
2013-10-18,46,40,35,43,39,33,93,87,68,29.93,29.83,29.75,10,8,2,20,8,26,0.00,7,Rain,271
2013-10-19,51,39,30,39,34,28,93,82,48,29.88,29.75,29.67,10,9,2,17,4,28,0.08,4,Rain,237
2013-10-20,43,36,30,41,35,29,100,92,81,29.83,29.74,29.64,10,5,0,18,6,29,0.00,8,Fog-Rain,171
2013-10-21,37,35,33,34,27,20,87,73,54,29.91,29.86,29.77,10,10,10,17,13,24,0.00,8,Rain,288
2013-10-22,45,36,28,29,25,22,88,69,48,30.01,29.94,29.86,10,10,10,14,10,18,0.00,5,,310
2013-10-23,39,32,26,31,26,21,87,77,62,30.04,29.98,29.94,10,8,1,16,7,23,0.00,7,Snow,298
2013-10-24,43,36,30,30,26,22,85,69,53,30.30,30.16,30.05,10,10,10,16,10,22,0.00,7,,300
2013-10-25,51,41,32,34,28,25,85,63,46,30.32,30.11,29.74,10,10,10,21,9,29,0.00,5,,238
2013-10-26,50,45,39,36,31,27,82,61,47,30.06,29.91,29.71,10,10,10,22,13,29,0.01,6,Rain,300
2013-10-27,55,42,28,32,28,25,89,63,35,30.11,29.96,29.83,10,10,10,17,7,25,0.00,2,,250
2013-10-28,43,35,28,29,22,19,80,62,43,30.47,30.37,30.14,10,10,10,16,9,26,0.00,0,,58
2013-10-29,43,34,26,37,29,20,89,79,70,30.46,30.31,30.15,10,10,5,12,7,,0.00,7,Rain,95
2013-10-30,52,46,39,51,44,37,97,92,87,30.14,29.98,29.74,4,2,0,12,6,,0.00,8,Fog-Rain,114
2013-10-31,55,48,41,54,48,39,100,96,92,29.70,29.44,29.29,8,2,0,18,6,26,0.19,8,Fog-Rain,287